Weather History for Toledo Metcalf, OH

Change the Weather History Date:

Friday, February 7, 2014

  Actual Average (KTOL) Record (KTOL)
Temperature  
Mean Temperature 0 °F 27 °F  
Max Temperature 9 °F 34 °F 56 °F (1925)
Min Temperature -8 °F 19 °F -9 °F (1972)
Degree Days  
Heating Degree Days 64 38  
Month to date heating degree days 272  
Since 1 July heating degree days 3821  
Cooling Degree Days 0 0  
Month to date cooling degree days 0  
Year to date cooling degree days 0  
Moisture  
Dew Point -8 °F    
Average Humidity 70    
Maximum Humidity 76    
Minimum Humidity 61    
Precipitation  
Precipitation 0.00 in 0.07 in 0.65 in (2005)
Month to date precipitation 0.47  
Year to date precipitation 2.52  
Snow  
Snow 0.00 in 0.40 in - ()
Month to date snowfall 2.6  
Since 1 July snowfall 23.7  
Snow Depth -    
Sea Level Pressure  
Sea Level Pressure 30.41 in    
Wind  
Wind Speed 11 mph (SW)    
Max Wind Speed 18 mph    
Max Gust Speed 23 mph    
Visibility 10 miles    
Events      
T = Trace of Precipitation, MM = Missing Value Source: NWS Daily Summary

Daily Weather History Graph

Daily Weather History Graph

Search for Another Location

Airport:

Trip Planner

Search our weather history database for the weather conditions in past years. The results will help you decide how hot, cold, wet, or windy it might be!

Date:

Astronomy

Feb. 07, 2014 Rise Set
Actual Time 7:39 AM EST 5:57 PM EST
Civil Twilight 7:10 AM EST 6:26 PM EST
Nautical Twilight 6:37 AM EST 6:59 PM EST
Astronomical Twilight 6:05 AM EST 7:31 PM EST
Moon 12:07 PM EST (2/7) 1:54 AM EST (2/7)
Length of Visible Light 11h 16m
Length of Day
10h 18m
First Quarter, 59% of the Moon is Illuminated
Feb 7
First Quarter
Feb 14
Full
Feb 22
Last Quarter
Mar 1
New
Mar 8
First Quarter

Hourly Weather History & Observations

Time (EST) Temp. Windchill Dew Point Humidity Pressure Visibility Wind Dir Wind Speed Gust Speed Precip Events Conditions
12:53 AM -2.9 °F -18.8 °F -9.9 °F 72% 30.41 in 10.0 mi SW 9.2 mph - N/A   Clear
1:53 AM -4.0 °F -21.2 °F -11.0 °F 72% 30.41 in 10.0 mi WSW 10.4 mph - N/A   Clear
2:53 AM -7.1 °F -21.4 °F -13.0 °F 75% 30.40 in 10.0 mi SSW 6.9 mph - N/A   Clear
3:53 AM -8.0 °F -25.0 °F -14.1 °F 75% 30.42 in 10.0 mi SW 9.2 mph - N/A   Clear
4:53 AM -8.0 °F -25.0 °F -14.1 °F 75% 30.41 in 10.0 mi SSW 9.2 mph - N/A   Clear
5:43 AM -7.1 °F -25.0 °F -14.1 °F 72% 30.36 in 10.0 mi SW 10.4 mph - N/A   Mostly Cloudy
5:53 AM -7.1 °F -25.0 °F -13.0 °F 75% 30.40 in 10.0 mi SSW 10.4 mph - N/A   Overcast
6:24 AM -7.1 °F -25.9 °F -13.0 °F 75% 30.36 in 10.0 mi SSW 11.5 mph - N/A   Scattered Clouds
6:53 AM -7.1 °F -23.9 °F -13.0 °F 75% 30.42 in 10.0 mi SW 9.2 mph - N/A   Clear
7:53 AM -6.0 °F -25.5 °F -11.9 °F 75% 30.42 in 10.0 mi SSW 12.7 mph - N/A   Partly Cloudy
8:53 AM -5.1 °F -24.3 °F -11.0 °F 76% 30.45 in 10.0 mi SW 12.7 mph - N/A   Partly Cloudy
9:53 AM -2.9 °F -20.8 °F -9.9 °F 72% 30.45 in 10.0 mi SW 11.5 mph - N/A   Clear
10:53 AM -0.0 °F -18.7 °F -8.0 °F 69% 30.45 in 10.0 mi SW 13.8 mph - N/A   Scattered Clouds
11:53 AM 1.9 °F -18.7 °F -6.0 °F 69% 30.45 in 10.0 mi SW 18.4 mph - N/A   Clear
12:53 PM 3.9 °F -15.0 °F -4.0 °F 70% 30.43 in 10.0 mi SW 16.1 mph - N/A   Clear
1:53 PM 6.1 °F -12.2 °F -2.9 °F 67% 30.41 in 10.0 mi SW 16.1 mph 23.0 mph N/A   Clear
2:53 PM 8.1 °F -10.2 °F -2.0 °F 64% 30.41 in 10.0 mi SW 17.3 mph 23.0 mph N/A   Clear
3:53 PM 9.0 °F -8.5 °F -2.0 °F 61% 30.41 in 10.0 mi SW 16.1 mph 23.0 mph N/A   Clear
4:53 PM 8.1 °F -9.6 °F -2.0 °F 64% 30.41 in 10.0 mi SW 16.1 mph - N/A   Clear
5:53 PM 6.1 °F -10.9 °F -2.9 °F 67% 30.41 in 10.0 mi SW 13.8 mph - N/A   Clear
6:53 PM 5.0 °F -9.1 °F -4.0 °F 66% 30.43 in 10.0 mi SW 9.2 mph - N/A   Clear
7:53 PM 3.9 °F -11.3 °F -5.1 °F 66% 30.42 in 10.0 mi SW 10.4 mph - N/A   Clear
8:53 PM 3.0 °F -11.5 °F -6.0 °F 66% 30.42 in 10.0 mi SW 9.2 mph - N/A   Clear
9:53 PM 1.0 °F -11.7 °F -7.1 °F 69% 30.41 in 10.0 mi SW 6.9 mph - N/A   Clear
10:53 PM 1.9 °F -10.6 °F -7.1 °F 66% 30.41 in 10.0 mi SW 6.9 mph - N/A   Clear
11:53 PM 3.0 °F -11.5 °F -6.0 °F 66% 30.41 in 10.0 mi SW 9.2 mph - N/A   Clear